#timestamp,LO_Frequency,Hit,StdDev 
1502377215.8,286046998.6,N,1.1
1502377235.7,286046999.5,N,1.1
1502377255.5,286046998.4,N,1.2
1502377275.4,286046998.9,N,1.2
1502377295.2,286046998.9,N,1.2
1502377315.0,286046998.9,N,1.1
1502377315.9,286046998.9,N,1.1
1502377335.8,286046999.0,N,1.1
1502377355.6,286046996.5,Y,0.0
1502377375.5,286046999.6,P,0.2
1502377395.3,286047000.8,P,0.5
1502377415.1,286047001.1,N,0.6
1502377435.9,286046998.8,N,0.8
1502377455.7,286046999.4,N,0.8
1502377475.6,286046998.8,N,0.8
1502377495.4,286046999.2,N,0.8
1502377515.2,286046999.2,N,0.8
1502377535.1,286046996.8,Y,0.0
1502377536.0,286046996.8,P,1.4
1502377555.8,286046996.8,N,1.3
1502377575.7,286046997.0,N,1.2
1502377595.5,286046996.8,N,1.1
1502377615.3,286046997.0,N,1.0
1502377635.2,286046999.1,N,1.1
1502377655.0,286046998.4,N,1.1
1502377655.9,286046998.4,N,1.1
1502377675.8,286046998.9,N,1.1
1502377695.6,286047001.1,N,1.4
1502377715.4,286046998.2,N,1.3
1502377735.3,286047000.5,N,1.4
1502377755.1,286046999.8,N,1.4
1502377775.9,286047000.2,N,1.4
1502377795.7,286047002.6,N,1.7
1502377815.5,286047000.0,N,1.7
1502377835.4,286046999.7,N,1.6
1502377855.2,286046999.8,N,1.6
1502377875.0,286047002.8,N,1.8
1502377876.0,286047002.8,N,1.9
1502377895.8,286047000.1,N,1.8
1502377915.6,286047000.9,N,1.8
1502377935.5,286047000.0,N,1.8
1502377955.3,286047000.1,N,1.8
1502377975.1,286047000.0,N,1.7
1502377995.9,286047002.6,N,1.8
1502378015.7,286047002.1,N,1.8
1502378035.6,286047002.2,N,1.8
1502378055.4,286047002.8,N,1.9
1502378075.2,286047002.2,N,1.9
1502378095.1,286047001.6,N,1.9
1502378096.0,286047001.6,N,1.8
1502378115.8,286047002.0,N,1.7
1502378135.7,286047002.2,N,1.6
1502378155.5,286047001.8,N,1.4
1502378175.3,286047001.7,N,1.4
1502378195.2,286047004.0,N,1.4
1502378215.0,286047003.2,N,1.4
1502378215.9,286047003.2,N,1.4
1502378235.8,286047004.3,Y,0.0
1502378255.6,286047001.7,P,0.2
1502378275.4,286047002.2,P,0.3
1502378295.3,286047001.6,P,0.3
1502378315.1,286047002.2,Y,0.0
1502378335.9,286047001.0,P,0.4
1502378355.7,286047000.7,N,0.4
1502378375.5,286047000.5,N,0.5
1502378395.4,286046998.2,Y,0.0
1502378415.2,286046999.0,P,1.0
1502378435.1,286046998.6,N,1.0
1502378436.0,286046998.6,N,1.0
1502378455.8,286046998.4,N,1.0
1502378475.6,286046998.8,N,0.9
1502378495.5,286046998.6,N,0.8
1502378515.3,286047001.1,N,1.0
1502378535.2,286046998.7,N,1.0
1502378555.9,286046998.4,N,1.0
1502378575.7,286046998.1,N,1.0
1502378595.6,286047000.8,N,1.1
1502378615.4,286047001.1,N,1.1
1502378635.3,286046998.1,N,1.1
1502378655.1,286046998.3,N,1.1
1502378656.0,286046998.3,N,1.1
1502378675.8,286046998.8,N,1.1
1502378695.7,286046998.6,N,1.1
1502378715.5,286047001.2,N,1.1
1502378735.4,286046999.9,N,1.1
1502378755.2,286046999.9,N,1.1
1502378775.0,286047002.7,N,1.3
1502378775.9,286047002.7,N,1.4
1502378795.8,286047002.7,N,1.5
1502378815.6,286047000.5,N,1.5
1502378835.5,286047000.2,N,1.5
1502378855.3,286046999.7,N,1.5
1502378875.1,286047002.6,N,1.5
1502378895.9,286047002.7,N,1.6
1502378915.7,286047001.9,N,1.6
1502378935.6,286047002.7,N,1.7
1502378955.4,286047002.7,N,1.7
1502378975.2,286047002.1,N,1.7
1502378995.1,286047002.8,N,1.8
1502378996.0,286047002.8,N,1.8
1502379015.8,286047001.9,N,1.7
1502379035.7,286047002.1,N,1.7
1502379055.5,286047001.6,N,1.7
1502379075.3,286047002.0,N,1.7
1502379095.2,286047001.3,N,1.6
1502379115.0,286047001.6,N,1.5
1502379115.9,286047001.6,N,1.5
1502379135.8,286047004.4,N,1.6
1502379155.6,286047001.8,N,1.5
1502379175.4,286047001.5,N,1.4
1502379195.3,286047001.5,N,1.3
1502379215.1,286047003.9,Y,0.0
1502379235.9,286047002.8,P,0.6
1502379255.7,286046999.8,N,1.2
1502379275.5,286047002.8,N,1.2
1502379295.4,286046999.8,N,1.3
1502379315.2,286047002.7,N,1.3
1502379335.1,286047002.6,N,1.3
1502379336.0,286047002.6,N,1.2
1502379355.8,286046999.7,N,1.3
1502379375.6,286047002.4,N,1.3
1502379395.5,286047002.7,N,1.3
1502379415.3,286046999.7,N,1.3
1502379435.2,286047002.4,N,1.3
1502379455.9,286047002.4,N,1.3
1502379475.7,286047002.5,N,1.2
1502379495.6,286047001.3,N,1.2
1502379515.4,286047004.4,Y,0.0
1502379535.3,286047000.1,P,0.8
1502379555.1,286047000.2,N,0.7
1502379556.0,286047000.2,N,0.7
1502379575.8,286047002.3,Y,0.0
1502379595.7,286047000.9,P,0.2
1502379615.5,286047000.7,P,0.1
1502379635.4,286047000.6,P,0.1
1502379655.2,286046999.9,N,0.3
1502379675.0,286047000.5,N,0.3
1502379675.9,286047000.5,N,0.3
1502379695.8,286047000.4,N,0.3
1502379715.6,286047000.4,N,0.3
1502379735.5,286046999.8,N,0.3
1502379755.3,286047000.3,N,0.3
1502379775.1,286047002.5,Y,0.0
1502379795.9,286047000.5,P,0.0
1502379815.7,286047000.5,P,0.0
1502379835.6,286047000.0,N,0.2
1502379855.4,286047000.3,N,0.2
1502379875.2,286046999.9,N,0.2
1502379895.1,286047001.0,Y,0.0
1502379896.0,286047001.0,P,0.4
1502379915.8,286047000.1,N,0.4
1502379935.7,286047000.3,N,0.3
1502379955.5,286047000.5,N,0.3
1502379975.3,286047001.0,Y,0.0
1502379995.2,286046998.3,P,1.1
1502380015.0,286047000.6,N,1.0
1502380015.9,286047000.6,N,1.0
1502380035.8,286047000.7,N,0.9
1502380055.6,286046998.3,N,1.1
1502380075.4,286047000.7,N,1.0
1502380095.3,286046998.5,N,1.1
1502380115.1,286046998.6,N,1.1
1502380135.9,286047000.7,N,1.1
1502380155.7,286047000.8,N,1.1
1502380175.5,286046998.1,N,1.1
1502380195.4,286047000.5,N,1.1
1502380215.2,286047000.4,N,1.1
1502380235.1,286047000.0,N,1.0
1502380236.0,286047000.0,N,1.0
1502380255.8,286047000.2,N,1.0
1502380275.6,286047000.2,N,1.0
1502380295.5,286047002.8,N,1.1
1502380315.3,286047000.2,N,1.1
1502380335.2,286047000.6,N,1.1
1502380355.0,286047000.1,N,1.1
1502380355.9,286047000.1,N,1.0
1502380375.7,286047000.0,N,1.0
1502380395.6,286047000.1,N,1.0
1502380415.4,286046999.9,N,1.0
1502380435.3,286047000.2,N,1.0
1502380455.1,286047002.3,N,1.0
1502380475.8,286047002.2,N,1.1
1502380495.7,286046999.7,N,1.1
1502380515.5,286046999.7,N,1.1
1502380535.4,286047000.2,N,1.0
1502380555.2,286047000.2,N,1.0
1502380575.0,286047002.0,N,1.1
1502380575.9,286047002.0,N,1.1
1502380595.8,286047002.5,N,1.1
1502380615.6,286047002.5,N,1.2
1502380635.5,286047001.9,N,1.1
1502380655.3,286047000.2,N,1.1
1502380675.1,286046999.8,N,1.1
1502380695.9,286047000.3,N,1.1
1502380715.7,286047000.4,N,1.0
1502380735.5,286046999.8,N,1.0
1502380755.4,286047002.6,N,1.0
1502380775.2,286046999.8,N,1.1
1502380795.1,286047000.1,N,1.0
1502380796.0,286047000.1,N,1.1
